ARIANE 5 DEB (SYLDA), 41947

Orbit data source: Space-Track

ARIANE 5 DEB (SYLDA), 41947 is space debris in HEO originally from a launch on Tue, 14 Feb 2017 UTC launched from the French Guiana (FRGUI). Debris objects in space refer to the collection of defunct objects orbiting the Earth. Examples of debris include non-operational satellites, rocket bodies, and fragments generated from explosions, collisions, or faulty payload assembly.

Loading next visibility...
ARIANE 5 DEB (SYLDA) details
Identifier
41947, 2017-007D
Orbit
HEO
Last TLE update14 hours ago
Origin
Flag of FRArianespace (FR)
ManufacturerADS/Bremen
MissionSpacecraft
Bus & MotorSYLDA 5, Unknown motor
Mass440 kg wet, 440 kg dry
Launch date (UTC)
2017-02-14 (8 years ago)
Launch vehicleUnknown
Launch site
French Guiana (FRGUI)
Object type
Payload
Rocket body
Debris
Shape & HBRCyl, 5.5 m
Radar Cross Section27.391 m², Large (>1 m²)

Expand to show TLE details & history

TLE from 14 hours ago
0 ARIANE 5 DEB (SYLDA)
1 41947U 17007D   24360.99036943  .00119442  00000-0  10606-1 0  9993
2 41947   3.8910 124.6514 5465840 138.1757 279.8867  4.90646304 82479
Epoch: 2024-12-25T23:46Z
Definitive object data (Epoch: 2024-12-25T23:46:07.918Z)
Latitude0.00002°
Longitude33.07727°
Altitude10,938.456 km
Speed4.335 km/s
True Right ascension08h 18m 20s
True Declination0° 00' 00"
Sunlit
Object was in daylight at TLE epoch
Visualization TLE readout
Latitude-0.60647°
Longitude23.46104°
Altitude12,835.593 km
Speed3.774 km/s
Apparent Right ascension06h 42m 14s
Apparent Declination-12° 15' 17"
Sunlit
Object is in daylight
Visualization observer readout
Local Sidereal Time13:32:36
Azimuth268.431° W
Elevation-17.431°
Doppler factor1
Orbital elements
Apogee altitude16,255.156 km
Perigee altitude257.324 km
Semi-major axis14,634.377 km
Eccentricity0.546584
Inclination3.891°
RAAN124.6514°
Arg. of periapsis138.1757°
True anomaly221.79973°
Mean anomaly279.8867°
Eccentric anomaly250.38676°
Mean motion1.22598 °/min
BSTAR0.010606
Orbital period293.64 mins
Loading maneuver chart data...
Loading historical data...
Loading historical data...
Loading historical data...
Loading historical data...
Loading historical data...
Loading historical data...
Loading historical data...
Other satellites on launch #7 in the year 2017 (2017-02-14 UTC)

ARIANE 5 DEB (SYLDA) Visibility forecast

Observer location: undefined°, undefined

Span
Click to sort rows by Start time (UTC) header in descending order
Start Az.
Max El. time (UTC)
Max El. Az.
Max El.
End time (UTC)
End Az.
178 mins2024-12-27 01:47:48.154Z202.047° SSW2024-12-27 02:31:48.154Z153.692° SSE22.57°2024-12-27 04:45:48.154Z118.645° SE
175 mins2024-12-27 07:44:48.154Z237.167° WSW2024-12-27 10:06:48.154Z197.677° SSW26.175°2024-12-27 10:39:48.154Z145.473° SSE
|